Tracking 18852 objects as of 23-Nov-2017
HD Live streaming from Space Station
objects crossing your sky now

FENGYUN 1C DEB

Track FENGYUN 1C DEB now!
10-day predictions


NORAD ID: 31542
Int'l Code: 1999-025BYH
Perigee: 824.2 km
Apogee: 900.8 km
Inclination: 99.0 °
Period: 102.0 minutes
Semi major axis: 7233 km
RCS: 0.0019 m2 (small)
Launch date: May 10, 1999
Source: People's Republic of China (PRC)
Launch site: Taiyaun Space Center, China (TSC)

Note: This is SATELLITE DEBRIS
aabbcc
Your satellite tracking list
Your tracking list is empty




NASA's NSSDC Master Catalog

Two Line Element Set (TLE):
1 31542U 99025BYH 17327.30185009  .00000707  00000-0  41207-3 0  9997
2 31542  98.9790   3.9348 0052907 288.2345  71.3072 14.11176997544460
Source of the keplerian elements: AFSPC